sat.trackr.live / text

‹ back to catalog

CENTISPACE-1 S16

NORAD 62585 · 2025-007L

PAYLOAD ACTIVE UNKNOWN

§ Identity

Operator
Country
PRC
Launch date
2025-01-13
Launch site
YSLA
Launch vehicle
Mass (kg)
RCS (m²)

External: N2YO · Heavens-Above · Gunter

§ Orbital elements

Epoch: 2026-09-22T18:53:52.416672Z

Period
104.31 min
Inclination
54.9888°
Eccentricity
0.0010470
Mean motion
13.80534317 rev/d
Perigee alt
954.3 km
Apogee alt
969.7 km
Semi-major
7,340.1 km
B*
8.1046e-5
RAAN
310.0597°
Arg perigee
280.9898°
Mean anomaly
78.9880°
Rev number
8,819

§ Raw data

CENTISPACE-1 S161 62585U 25007L   26265.78741223 -.00000055  00000+0  81046-4 0  99982 62585  54.9888 310.0597 0010470 280.9898  78.9880 13.80534317 88192

JSON: /api/v1/satellites/62585 · /tle

For live sub-satellite position, see the globe view (requires WebGL).

§ Visibility from observer

Set your observer location to see the next 7 days of passes ≥ 10°. The values pass through the URL so the page stays shareable.

No JS? Fill the form by hand. The geolocation button needs JavaScript.

§ Radio — SatNOGS DB

ModeDescriptionDownlinkUplink
BPSK S-band telemetry 2.222 GHz

1 transmitter · refreshed weekly from db.satnogs.org